Time,TemperatureF,DewpointF,PressureIn,WindDirection,WindDirectionDegrees,WindSpeedMPH,WindSpeedGustMPH,Humidity,HourlyPrecipIn,Conditions,Clouds,dailyrainin,SoftwareType,DateUTC
2013-10-14 00:12:00,42.0,41.0,30.09,ESE,107,0.0,2.0,95,0.11,,,0.57,,2013-10-14 06:12:00,
2013-10-14 00:22:00,42.0,41.0,30.09,ESE,107,0.0,1.0,95,0.06,,,0.57,,2013-10-14 06:22:00,
2013-10-14 00:42:00,42.0,41.0,30.09,ESE,107,0.0,0.0,95,0.03,,,0.57,,2013-10-14 06:42:00,
2013-10-14 00:52:00,42.0,41.0,30.09,ESE,107,0.0,2.0,95,0.02,,,0.58,,2013-10-14 06:52:00,
2013-10-14 01:11:00,42.0,41.0,30.10,ESE,107,0.0,4.0,95,0.01,,,0.58,,2013-10-14 07:11:00,
2013-10-14 01:22:00,42.0,41.0,30.08,ESE,107,1.0,5.0,95,0.02,,,0.59,,2013-10-14 07:22:00,
2013-10-14 01:42:00,42.0,41.0,30.08,SW,223,5.0,8.0,95,0.02,,,0.59,,2013-10-14 07:42:00,
2013-10-14 01:52:00,42.0,41.0,30.09,SW,219,0.0,3.0,95,0.02,,,0.60,,2013-10-14 07:52:00,
2013-10-14 02:12:00,42.0,41.0,30.09,SW,219,1.0,3.0,95,0.02,,,0.60,,2013-10-14 08:12:00,
2013-10-14 02:21:00,42.0,41.0,30.09,SW,219,0.0,2.0,95,0.01,,,0.60,,2013-10-14 08:21:00,
2013-10-14 02:42:00,43.0,42.0,30.09,SW,219,0.0,4.0,95,0.01,,,0.60,,2013-10-14 08:42:00,
2013-10-14 02:52:00,43.0,42.0,30.09,SW,219,2.0,2.0,95,0.00,,,0.60,,2013-10-14 08:52:00,
2013-10-14 03:11:00,43.0,42.0,30.09,SW,219,0.0,1.0,95,0.00,,,0.60,,2013-10-14 09:11:00,
2013-10-14 03:22:00,43.0,42.0,30.09,SW,219,0.0,1.0,95,0.00,,,0.60,,2013-10-14 09:22:00,
2013-10-14 03:43:00,43.0,42.0,30.09,SW,219,0.0,2.0,95,0.00,,,0.60,,2013-10-14 09:43:00,
2013-10-14 03:53:00,43.0,42.0,30.10,SW,219,2.0,3.0,95,0.00,,,0.60,,2013-10-14 09:53:00,
2013-10-14 04:12:00,43.0,42.0,30.10,SW,219,0.0,5.0,95,0.00,,,0.60,,2013-10-14 10:12:00,
2013-10-14 04:22:00,42.0,41.0,30.10,SW,219,0.0,3.0,95,0.00,,,0.60,,2013-10-14 10:22:00,
2013-10-14 04:42:00,42.0,41.0,30.10,SW,219,0.0,3.0,95,0.00,,,0.60,,2013-10-14 10:42:00,
2013-10-14 04:53:00,42.0,41.0,30.11,SW,219,2.0,3.0,95,0.00,,,0.60,,2013-10-14 10:53:00,
2013-10-14 05:11:00,42.0,41.0,30.11,SW,219,0.0,2.0,95,0.00,,,0.60,,2013-10-14 11:11:00,
2013-10-14 05:22:00,43.0,42.0,30.12,SW,219,0.0,1.0,95,0.01,,,0.61,,2013-10-14 11:22:00,
2013-10-14 05:42:00,42.0,41.0,30.12,SW,219,2.0,5.0,95,0.04,,,0.64,,2013-10-14 11:42:00,
2013-10-14 05:52:00,42.0,41.0,30.12,SW,219,1.0,4.0,95,0.04,,,0.64,,2013-10-14 11:52:00,
2013-10-14 06:12:00,42.0,41.0,30.13,SW,219,0.0,7.0,95,0.04,,,0.64,,2013-10-14 12:12:00,
2013-10-14 06:22:00,42.0,41.0,30.14,SW,219,4.0,5.0,95,0.03,,,0.64,,2013-10-14 12:22:00,
2013-10-14 06:42:00,42.0,41.0,30.14,SW,219,2.0,4.0,95,0.02,,,0.66,,2013-10-14 12:42:00,
2013-10-14 06:52:00,42.0,41.0,30.15,SW,219,2.0,4.0,95,0.03,,,0.67,,2013-10-14 12:52:00,
2013-10-14 07:11:00,41.0,39.0,30.15,South,190,3.0,8.0,94,0.04,,,0.68,,2013-10-14 13:11:00,
2013-10-14 07:21:00,41.0,40.0,30.16,SW,226,5.0,6.0,95,0.04,,,0.68,,2013-10-14 13:21:00,
2013-10-14 07:41:00,41.0,39.0,30.16,SW,225,1.0,8.0,94,0.02,,,0.68,,2013-10-14 13:41:00,
2013-10-14 07:52:00,41.0,39.0,30.16,SW,223,3.0,7.0,94,0.01,,,0.68,,2013-10-14 13:52:00,
2013-10-14 08:11:00,41.0,39.0,30.17,SW,223,2.0,8.0,94,0.00,,,0.68,,2013-10-14 14:11:00,
2013-10-14 08:22:00,42.0,40.0,30.18,SW,223,0.0,6.0,94,0.01,,,0.69,,2013-10-14 14:22:00,
2013-10-14 08:42:00,42.0,40.0,30.19,SW,221,0.0,6.0,93,0.01,,,0.69,,2013-10-14 14:42:00,
2013-10-14 08:52:00,42.0,40.0,30.19,SW,221,0.0,5.0,93,0.02,,,0.70,,2013-10-14 14:52:00,
2013-10-14 09:11:00,42.0,40.0,30.19,SW,221,1.0,4.0,94,0.02,,,0.70,,2013-10-14 15:11:00,
2013-10-14 09:21:00,42.0,40.0,30.21,SW,221,0.0,5.0,94,0.01,,,0.70,,2013-10-14 15:21:00,
2013-10-14 09:44:00,42.0,40.0,30.21,SW,221,0.0,6.0,94,0.01,,,0.70,,2013-10-14 15:44:00,
2013-10-14 09:54:00,43.0,41.0,30.22,SW,221,2.0,6.0,93,0.01,,,0.71,,2013-10-14 15:54:00,
2013-10-14 10:13:00,43.0,41.0,30.22,SW,221,2.0,3.0,93,0.03,,,0.73,,2013-10-14 16:13:00,
2013-10-14 10:23:00,43.0,41.0,30.22,SW,221,2.0,6.0,94,0.03,,,0.73,,2013-10-14 16:23:00,
2013-10-14 10:53:00,44.0,42.0,30.23,SW,221,5.0,7.0,92,0.02,,,0.73,,2013-10-14 16:53:00,
2013-10-14 11:11:00,44.0,42.0,30.24,SW,220,1.0,7.0,91,0.00,,,0.73,,2013-10-14 17:11:00,
2013-10-14 11:22:00,44.0,41.0,30.24,SW,220,0.0,7.0,90,0.00,,,0.73,,2013-10-14 17:22:00,
2013-10-14 11:42:00,45.0,42.0,30.24,SW,220,2.0,9.0,90,0.00,,,0.73,,2013-10-14 17:42:00,
2013-10-14 11:52:00,45.0,42.0,30.25,SW,214,3.0,6.0,89,0.00,,,0.73,,2013-10-14 17:52:00,
2013-10-14 12:12:00,45.0,42.0,30.25,SW,215,3.0,7.0,89,0.00,,,0.73,,2013-10-14 18:12:00,
2013-10-14 12:22:00,46.0,43.0,30.25,SW,216,7.0,9.0,88,0.00,,,0.73,,2013-10-14 18:22:00,
2013-10-14 12:42:00,46.0,42.0,30.25,SW,217,0.0,7.0,85,0.00,,,0.73,,2013-10-14 18:42:00,
2013-10-14 12:52:00,48.0,42.0,30.22,SW,217,2.0,7.0,81,0.00,,,0.73,,2013-10-14 18:52:00,
2013-10-14 13:11:00,50.0,42.0,30.23,SW,217,2.0,6.0,74,0.00,,,0.73,,2013-10-14 19:11:00,
2013-10-14 13:21:00,51.0,42.0,30.22,SW,217,3.0,7.0,70,0.00,,,0.73,,2013-10-14 19:21:00,
2013-10-14 13:42:00,50.0,41.0,30.22,SW,219,2.0,7.0,70,0.00,,,0.73,,2013-10-14 19:42:00,
2013-10-14 13:52:00,51.0,40.0,30.22,SW,219,1.0,5.0,67,0.00,,,0.73,,2013-10-14 19:52:00,
2013-10-14 14:11:00,51.0,41.0,30.22,SW,219,0.0,5.0,69,0.00,,,0.73,,2013-10-14 20:11:00,
2013-10-14 14:22:00,51.0,40.0,30.21,SW,221,5.0,5.0,67,0.00,,,0.73,,2013-10-14 20:22:00,
2013-10-14 14:42:00,52.0,41.0,30.21,WNW,290,3.0,8.0,65,0.00,,,0.73,,2013-10-14 20:42:00,
2013-10-14 14:52:00,52.0,41.0,30.21,WNW,293,2.0,6.0,65,0.00,,,0.73,,2013-10-14 20:52:00,
2013-10-14 15:21:00,52.0,39.0,30.21,NNW,333,5.0,7.0,61,0.00,,,0.73,,2013-10-14 21:21:00,
2013-10-14 15:44:00,52.0,39.0,30.21,NNW,342,3.0,8.0,61,0.00,,,0.73,,2013-10-14 21:44:00,
2013-10-14 15:54:00,51.0,38.0,30.21,NNW,342,3.0,7.0,62,0.00,,,0.73,,2013-10-14 21:54:00,
2013-10-14 16:02:00,51.0,37.0,30.21,NNW,345,3.0,8.0,58,0.00,,,0.60,,2013-10-14 22:02:00,
2013-10-14 16:24:00,51.0,37.0,30.21,NNW,345,3.0,8.0,58,0.00,,,0.60,,2013-10-14 22:24:00,
2013-10-14 16:32:00,51.0,37.0,30.21,NNW,345,3.0,8.0,58,0.00,,,0.60,,2013-10-14 22:32:00,
2013-10-14 16:43:00,51.0,37.0,30.21,NNW,345,3.0,8.0,58,0.00,,,0.60,,2013-10-14 22:43:00,
2013-10-14 16:54:00,51.0,37.0,30.21,NNW,345,3.0,8.0,58,0.00,,,0.60,,2013-10-14 22:54:00,